TimeEST,TemperatureF,Dew PointF,Humidity,Sea Level PressureIn,VisibilityMPH,Wind Direction,Wind SpeedMPH,Gust SpeedMPH,PrecipitationIn,Events,Conditions,WindDirDegrees,DateUTC
12:15 AM,45.1,45.1,100,29.69,1.0,North,-9999.0,-,N/A,,Overcast,0,2012-12-18 05:15:00
12:35 AM,43.7,43.7,100,29.69,0.5,North,-9999.0,-,N/A,Fog,Fog,0,2012-12-18 05:35:00
12:55 AM,41.9,41.9,100,29.69,0.5,North,-9999.0,-,N/A,Fog,Fog,0,2012-12-18 05:55:00
1:15 AM,41.9,41.9,100,29.69,0.5,North,-9999.0,-,N/A,Fog,Fog,0,2012-12-18 06:15:00
1:35 AM,42.8,42.8,100,29.69,5.0,North,-9999.0,-,N/A,,Overcast,0,2012-12-18 06:35:00
1:55 AM,43.2,43.2,100,29.69,10.0,North,-9999.0,-,N/A,,Overcast,0,2012-12-18 06:55:00
2:15 AM,43.3,43.3,100,29.69,10.0,North,-9999.0,-,N/A,,Overcast,0,2012-12-18 07:15:00
2:35 AM,43.2,43.2,100,29.70,10.0,North,-9999.0,-,N/A,,Overcast,0,2012-12-18 07:35:00
2:55 AM,43.9,43.9,100,29.70,10.0,North,-9999.0,-,N/A,,Overcast,0,2012-12-18 07:55:00
3:15 AM,43.9,43.9,100,29.70,10.0,North,-9999.0,-,N/A,,Overcast,0,2012-12-18 08:15:00
3:35 AM,44.2,44.2,100,29.70,10.0,North,-9999.0,-,N/A,Rain,Light Rain,0,2012-12-18 08:35:00
3:55 AM,44.4,44.4,100,29.69,10.0,North,-9999.0,-,N/A,,Light Drizzle,0,2012-12-18 08:55:00
4:15 AM,44.6,44.6,100,29.69,10.0,North,-9999.0,-,N/A,,Overcast,0,2012-12-18 09:15:00
4:35 AM,45.5,45.5,100,29.70,1.5,North,-9999.0,-,N/A,,Unknown,0,2012-12-18 09:35:00
4:55 AM,44.6,44.6,100,29.69,5.0,North,-9999.0,-,N/A,,Mostly Cloudy,0,2012-12-18 09:55:00
5:15 AM,44.2,44.2,100,29.70,7.0,North,-9999.0,-,N/A,,Mostly Cloudy,0,2012-12-18 10:15:00
5:35 AM,44.6,44.6,100,29.71,7.0,North,-9999.0,-,N/A,,Overcast,0,2012-12-18 10:35:00
5:55 AM,44.6,44.6,100,29.72,7.0,North,-9999.0,-,N/A,,Overcast,0,2012-12-18 10:55:00
6:15 AM,45.5,45.5,100,29.72,10.0,North,-9999.0,-,N/A,,Overcast,0,2012-12-18 11:15:00
6:55 AM,45.7,45.7,100,29.74,10.0,North,-9999.0,-,N/A,,Overcast,0,2012-12-18 11:55:00
7:15 AM,45.5,45.5,100,29.75,10.0,North,-9999.0,-,N/A,,Overcast,0,2012-12-18 12:15:00
7:35 AM,45.9,45.0,97,29.75,5.0,North,-9999.0,-,N/A,Rain,Rain,0,2012-12-18 12:35:00
7:55 AM,45.3,44.6,97,29.77,5.0,North,-9999.0,-,N/A,,Drizzle,0,2012-12-18 12:55:00
8:15 AM,45.0,43.7,95,29.78,10.0,North,-9999.0,-,N/A,,Overcast,0,2012-12-18 13:15:00
8:35 AM,44.8,43.7,96,29.79,3.0,North,-9999.0,-,N/A,Rain,Rain,0,2012-12-18 13:35:00
8:55 AM,44.6,43.7,97,29.80,3.0,North,-9999.0,-,N/A,Rain,Rain,0,2012-12-18 13:55:00
9:15 AM,44.4,43.7,97,29.81,5.0,North,-9999.0,-,N/A,Rain,Rain,0,2012-12-18 14:15:00
9:35 AM,44.2,43.3,97,29.82,7.0,North,-9999.0,-,N/A,Rain,Light Rain,0,2012-12-18 14:35:00
9:55 AM,43.9,43.0,97,29.84,5.0,North,-9999.0,-,N/A,Rain,Light Rain,0,2012-12-18 14:55:00
10:15 AM,44.6,41.9,90,29.84,10.0,North,-9999.0,-,N/A,,Overcast,0,2012-12-18 15:15:00
10:35 AM,45.1,41.7,88,29.85,10.0,North,-9999.0,-,N/A,,Overcast,0,2012-12-18 15:35:00
10:55 AM,45.0,41.2,87,29.86,10.0,North,-9999.0,-,N/A,,Overcast,0,2012-12-18 15:55:00
11:15 AM,43.5,41.0,91,29.87,10.0,North,-9999.0,-,N/A,,Light Drizzle,0,2012-12-18 16:15:00
11:35 AM,43.7,41.0,90,29.87,10.0,North,-9999.0,-,N/A,,Overcast,0,2012-12-18 16:35:00
11:55 AM,43.7,40.1,87,29.87,10.0,North,-9999.0,-,N/A,,Overcast,0,2012-12-18 16:55:00
12:15 PM,43.3,39.4,86,29.88,10.0,North,-9999.0,-,N/A,,Overcast,0,2012-12-18 17:15:00
12:35 PM,42.6,39.7,90,29.89,4.0,North,-9999.0,-,N/A,,Drizzle,0,2012-12-18 17:35:00
12:55 PM,42.1,39.7,91,29.89,7.0,North,-9999.0,-,N/A,,Overcast,0,2012-12-18 17:55:00
1:15 PM,41.9,39.2,90,29.89,7.0,North,-9999.0,-,N/A,,Overcast,0,2012-12-18 18:15:00
1:35 PM,42.1,39.0,89,29.89,5.0,North,-9999.0,-,N/A,,Overcast,0,2012-12-18 18:35:00
1:55 PM,40.8,39.2,94,29.90,2.5,North,-9999.0,-,N/A,,Overcast,0,2012-12-18 18:55:00
2:35 PM,41.0,40.1,97,29.90,10.0,North,-9999.0,-,N/A,,Overcast,0,2012-12-18 19:35:00
2:55 PM,41.4,39.7,94,29.90,10.0,North,-9999.0,-,N/A,,Overcast,0,2012-12-18 19:55:00
3:15 PM,41.4,39.6,93,29.91,10.0,North,-9999.0,-,N/A,,Overcast,0,2012-12-18 20:15:00
3:35 PM,41.5,39.4,92,29.91,10.0,North,-9999.0,-,N/A,,Overcast,0,2012-12-18 20:35:00
3:55 PM,41.9,39.2,90,29.91,10.0,North,-9999.0,-,N/A,,Overcast,0,2012-12-18 20:55:00
4:15 PM,41.9,38.7,88,29.92,10.0,North,-9999.0,-,N/A,,Overcast,0,2012-12-18 21:15:00
4:35 PM,41.9,38.3,87,29.93,10.0,North,-9999.0,-,N/A,,Overcast,0,2012-12-18 21:35:00
4:55 PM,41.9,37.2,83,29.94,10.0,North,-9999.0,-,N/A,,Overcast,0,2012-12-18 21:55:00
5:15 PM,41.2,37.8,88,29.94,10.0,North,-9999.0,-,N/A,,Overcast,0,2012-12-18 22:15:00
5:35 PM,39.9,38.3,94,29.94,10.0,North,-9999.0,-,N/A,,Overcast,0,2012-12-18 22:35:00
5:55 PM,40.3,39.2,96,29.95,10.0,North,-9999.0,-,N/A,,Overcast,0,2012-12-18 22:55:00
6:15 PM,39.7,39.2,98,29.96,10.0,North,-9999.0,-,N/A,,Overcast,0,2012-12-18 23:15:00
6:35 PM,38.1,37.6,98,29.96,7.0,North,-9999.0,-,N/A,,Mostly Cloudy,0,2012-12-18 23:35:00
6:55 PM,36.5,36.5,100,29.96,7.0,North,-9999.0,-,N/A,,Scattered Clouds,0,2012-12-18 23:55:00
7:15 PM,35.6,35.6,100,29.95,5.0,North,-9999.0,-,N/A,,Clear,0,2012-12-19 00:15:00
7:35 PM,34.7,34.7,100,29.94,4.0,North,-9999.0,-,N/A,,Clear,0,2012-12-19 00:35:00
7:55 PM,34.0,34.0,100,29.94,4.0,North,-9999.0,-,N/A,,Clear,0,2012-12-19 00:55:00
8:15 PM,33.8,33.8,100,29.94,3.0,North,-9999.0,-,N/A,,Clear,0,2012-12-19 01:15:00
8:35 PM,33.4,33.4,100,29.93,3.0,North,-9999.0,-,N/A,,Clear,0,2012-12-19 01:35:00
8:55 PM,32.9,32.9,100,29.91,3.0,North,-9999.0,-,N/A,,Clear,0,2012-12-19 01:55:00
9:15 PM,33.1,33.1,100,29.91,3.0,North,-9999.0,-,N/A,,Scattered Clouds,0,2012-12-19 02:15:00
9:35 PM,32.9,32.9,100,29.91,1.2,North,-9999.0,-,N/A,,Overcast,0,2012-12-19 02:35:00
9:55 PM,32.9,32.9,100,29.91,0.5,North,-9999.0,-,N/A,Fog,Fog,0,2012-12-19 02:55:00
10:15 PM,32.9,32.9,100,29.91,1.0,North,-9999.0,-,N/A,,Overcast,0,2012-12-19 03:15:00
10:35 PM,32.2,32.2,100,29.91,3.0,North,-9999.0,-,N/A,,Scattered Clouds,0,2012-12-19 03:35:00
10:55 PM,32.2,32.2,100,29.91,4.0,North,-9999.0,-,N/A,,Clear,0,2012-12-19 03:55:00
11:15 PM,32.0,32.0,100,29.91,5.0,North,-9999.0,-,N/A,,Clear,0,2012-12-19 04:15:00
11:35 PM,32.0,32.0,100,29.90,5.0,North,-9999.0,-,N/A,,Clear,0,2012-12-19 04:35:00
11:55 PM,32.0,32.0,100,29.91,5.0,North,-9999.0,-,N/A,,Clear,0,2012-12-19 04:55:00